RADUGA 29 [-]

Last updated on Aug. 12, 2020, 5:32 a.m. UTC

1 22557U 93013A   20224.80575177 -.00000328  00000-0  00000-0 0  9991
2 22557  14.8907   2.1607 0006091  71.6471 311.7763  1.00265363100274
UTC
Height (km)
Latitude
Longitude
Inclination
Orbital Period
UTC large
Height (km)
Speed (km/s)
/
Latitude / Longitude
Inclination (degrees)
Orbital Period (minutes)
Azimuth
Elevation
Range (km)
Doppler Factor
iOS Compass Heading
iOS Angle

Next 30 passes for location: Hong Kong

Rise time Rise Azimuth (degrees) Set time Set Azimuth (degrees) Duration Max altitude (degrees)

No matching passes for this satellites